Regional Weather Roundup
Issued by NWS

Home | Current Version | Previous Version | Text Only | Print | Product List | Glossary Off
Versions: 1 2 3 4 5 6 7 8 9 10 11 12 13 14 15 16 17 18 19 20 21 22 23 24 25 26 27 28 29 30 31 32 33 34 35 36 37 38 39 40 41 42 43 44 45 46 47 48 49 50

881
ASUS43 KLSX 250007
RWRMO

WEATHER SUMMARY FOR MISSOURI
NATIONAL WEATHER SERVICE SPRINGFIELD MO
700 PM CDT WED MAY 24 2017

NOTE: "FAIR" INDICATES FEW OR NO CLOUDS BELOW 12,000 FEET WITH NO
       SIGNIFICANT WEATHER AND/OR OBSTRUCTIONS TO VISIBILITY.
       CURRENT SKY AND/OR WEATHER CONDITIONS ARE NOT AVAILABLE FOR
       CHILLICOTHE AND FARMINGTON.

MOZ001>031-035>038-043-044-053-054-250100-
...NORTHERN AND WESTERN MISSOURI...

CITY           SKY/WX    TMP DP  RH WIND       PRES   REMARKS
KANSAS CTY INT MOSUNNY   65  49  56 N9        29.67S
6HR MIN TEMP:  61; 6HR MAX TEMP:  66;

KANSAS C DTWN  SUNNY     67  47  48 NW7       29.66S
6HR MIN TEMP:  61; 6HR MAX TEMP:  68;

LEE`S SUMMIT   MOSUNNY   65  49  56 N10       29.67S
6HR MIN TEMP:  58; 6HR MAX TEMP:  67;

ST JOSEPH      MOSUNNY   66  50  56 NE7       29.67F
6HR MIN TEMP:  62; 6HR MAX TEMP:  69;

CHILLICOTHE      N/A     66  49  54 N7        29.66S
6HR MIN TEMP:  56; 6HR MAX TEMP:  67; 6HR PCP:  0.06;

KIRKSVILLE     MOSUNNY   59  52  77 N5        29.65S
6HR MIN TEMP:  55; 6HR MAX TEMP:  64; 6HR PCP:  0.19;


$$
MOZ066>068-077>081-088>096-101>105-250100-
...SOUTHWEST MISSOURI...

CITY           SKY/WX    TMP DP  RH WIND       PRES   REMARKS
SPRINGFIELD    PTSUNNY   58  52  80 NW8       29.67S
6HR MIN TEMP:  54; 6HR MAX TEMP:  61; 6HR PCP:  0.08;

JOPLIN         CLOUDY    66  51  58 NW6       29.69S
6HR MIN TEMP:  61; 6HR MAX TEMP:  68;

BRANSON        LGT RAIN  55  52  88 NW10G18   29.70R

$$
MOZ032>034-039>042-045>050-055>058-069>072-250100-
...CENTRAL MISSOURI...

CITY           SKY/WX    TMP DP  RH WIND       PRES   REMARKS
COLUMBIA       PTSUNNY   64  51  62 NW13      29.63R
6HR MIN TEMP:  60; 6HR MAX TEMP:  67;

JEFFERSON CITY MOSUNNY   67  45  45 NW10      29.62R
6HR MIN TEMP:  61; 6HR MAX TEMP:  69;

ROLLA          SUNNY     62  46  55 NW8       29.61R
6HR MIN TEMP:  53; 6HR MAX TEMP:  64; 6HR PCP:  0.02;

SEDALIA        CLOUDY    63  50  62 N14       29.66S
6HR MIN TEMP:  59; 6HR MAX TEMP:  68; 6HR PCP:  0.01;

WHITEMAN AFB   PTSUNNY   58  58 100 NE3       29.66S
WARRENSBURG    CLOUDY    59  52  77 N3        29.67S
OSAGE BEACH    CLOUDY    62  49  62 W6        29.65R

$$
MOZ051-052-059>065-250100-
...EAST CENTRAL MISSOURI...

CITY           SKY/WX    TMP DP  RH WIND       PRES   REMARKS
ST LOUIS INTL  PTSUNNY   65  48  54 NW9       29.58R
6HR MIN TEMP:  64; 6HR MAX TEMP:  71;

SPIRIT OF STL  MOSUNNY   65  50  58 W13       29.57S
6HR MIN TEMP:  62; 6HR MAX TEMP:  69; 6HR PCP: TRACE;

ST CHARLES     MOSUNNY   61  52  72 NW10      29.57R
6HR MIN TEMP:  58; 6HR MAX TEMP:  69; 6HR PCP:  0.01;


$$
MOZ072>076-082>087-097>100-106>115-250100-
...SOUTH CENTRAL AND SOUTHEAST MISSOURI...

CITY           SKY/WX    TMP DP  RH WIND       PRES   REMARKS
CAPE GIRARDEAU MOSUNNY   63  48  58 W13       29.55R
6HR MIN TEMP:  63; 6HR MAX TEMP:  69; 6HR PCP: TRACE;

FARMINGTON     SUNNY     60  51  72 W9        29.60R
6HR MIN TEMP:  58; 6HR MAX TEMP:  65; 6HR PCP: TRACE;

POPLAR BLUFF   PTSUNNY   61  51  70 NW5       29.59R
6HR MIN TEMP:  61; 6HR MAX TEMP:  69; 6HR PCP: TRACE;

WEST PLAINS    SUNNY     60  47  61 NW10      29.65R
6HR MIN TEMP:  56; 6HR MAX TEMP:  65;


$$




USA.gov is the U.S. government's official web portal to all federal, state and local government web resources and services.